contact:dominique.lefevre@mio.osupytheas.fr, maurice.libes@osupytheas.fr, didier.mallarino@osupytheas.fr
Project:EMSO http://www.emso-fr.org/EMSO-France
Depth: 2436.0 m
Title:EMSO Ligure Ouest : Data MII capteur CSTAR
DateTime,Latitude,Longitude,Instrument_Serial,Reference_Counts,Signal_Counts,Corrected_Signal_raw_counts,Calculated_Beam_c_inverse_meters,Internal_thermistor_counts
DateTime,Latitude,Longitude,Instrument_Serial,Reference_Counts,Signal_Counts,Corrected_Signal_raw_counts,Calculated_Beam_c_inverse_meters,Internal_thermistor_counts
2022-04-05T09:55:06,42.805,6.029,CST-1368DR,4826,4382,9689,01.909,551
2022-04-05T09:58:08,42.805,6.029,CST-1368DR,4826,4375,9673,01.916,551
2022-04-05T10:01:09,42.805,6.029,CST-1368DR,4826,4362,9644,01.928,551
2022-04-05T10:04:11,42.805,6.029,CST-1368DR,4836,5677,12527,0.882,551
2022-04-05T10:07:12,42.805,6.029,CST-1368DR,4836,5694,12564,0.870,551
2022-04-05T10:10:14,42.805,6.029,CST-1368DR,4835,5598,12354,0.937,551
2022-04-05T10:13:16,42.805,6.029,CST-1368DR,4832,5363,11842,01.107,551
2022-04-05T10:16:17,42.805,6.029,CST-1368DR,4833,5391,11903,01.086,551
2022-04-05T10:19:19,42.805,6.029,CST-1368DR,4829,5039,11135,01.353,551
2022-04-05T10:22:20,42.805,6.029,CST-1368DR,4830,5135,11343,01.279,551
2022-04-05T10:25:22,42.805,6.029,CST-1368DR,4831,5285,11673,01.164,551
2022-04-05T10:28:24,42.805,6.029,CST-1368DR,4824,4436,9811,01.859,551
2022-04-05T10:31:25,42.805,6.029,CST-1368DR,4813,2357,5226,04.379,551
2022-04-05T10:34:27,42.805,6.029,CST-1368DR,4814,2555,5662,04.058,551
2022-04-05T10:37:28,42.805,6.029,CST-1368DR,4821,3975,8797,02.296,551
2022-04-05T10:40:30,42.805,6.029,CST-1368DR,4818,3638,8056,02.648,551
2022-04-05T10:43:31,42.805,6.029,CST-1368DR,4821,4035,8929,02.236,551
2022-04-05T10:46:33,42.805,6.029,CST-1368DR,4817,3472,7689,02.834,551
2022-04-05T10:49:35,42.805,6.029,CST-1368DR,4822,4348,9620,01.938,551
2022-04-05T10:52:36,42.805,6.029,CST-1368DR,4828,5106,11285,01.299,551
2022-04-05T10:55:38,42.805,6.029,CST-1368DR,4828,5123,11322,01.286,551
2022-04-05T10:58:39,42.805,6.029,CST-1368DR,4828,5220,11536,01.211,551
2022-04-05T11:01:41,42.805,6.029,CST-1368DR,4827,5047,11157,01.345,551
2022-04-05T11:04:42,42.805,6.029,CST-1368DR,4827,5134,11348,01.277,551
2022-04-05T11:07:44,42.805,6.029,CST-1368DR,4827,5119,11315,01.289,551
2022-04-05T11:10:46,42.805,6.029,CST-1368DR,4827,5152,11389,01.263,551
2022-04-05T11:13:47,42.805,6.029,CST-1368DR,4821,4407,9752,01.883,551
2022-04-05T11:16:49,42.805,6.029,CST-1368DR,4820,4289,9493,01.991,551
2022-04-05T11:19:50,42.805,6.029,CST-1368DR,4823,4663,10316,01.658,551
2022-04-05T11:22:52,42.805,6.029,CST-1368DR,4825,5031,11125,01.356,551
2022-04-05T11:25:53,42.805,6.029,CST-1368DR,4825,5036,11136,01.352,551
2022-04-05T11:28:55,42.805,6.029,CST-1368DR,4828,5401,11937,01.075,551
2022-04-05T11:31:57,42.805,6.029,CST-1368DR,4828,5402,11938,01.074,551
2022-04-05T11:34:58,42.805,6.029,CST-1368DR,4828,5381,11893,01.089,551
2022-04-05T11:38:00,42.805,6.029,CST-1368DR,4826,5230,11563,01.202,551
2022-04-05T11:41:01,42.805,6.029,CST-1368DR,4828,5482,12116,01.015,551
2022-04-05T11:44:03,42.805,6.029,CST-1368DR,4828,5462,12072,01.030,551
2022-04-05T11:47:05,42.805,6.029,CST-1368DR,4828,5467,12083,01.026,551
2022-04-05T11:50:06,42.805,6.029,CST-1368DR,4827,5342,11808,01.118,551
2022-04-05T11:53:08,42.805,6.029,CST-1368DR,4828,5535,12232,0.977,551
2022-04-05T11:56:09,42.805,6.029,CST-1368DR,4825,5242,11592,01.192,551
2022-04-05T11:59:11,42.805,6.029,CST-1368DR,4825,5200,11498,01.224,551
2022-04-05T12:02:12,42.805,6.029,CST-1368DR,4826,5289,11693,01.157,551
2022-04-05T12:05:14,42.805,6.029,CST-1368DR,4826,5300,11719,01.148,551
2022-04-05T12:08:16,42.805,6.029,CST-1368DR,4826,5350,11828,01.111,551
2022-04-05T12:11:17,42.805,6.029,CST-1368DR,4825,5308,11738,01.142,551
2022-04-05T12:14:19,42.805,6.029,CST-1368DR,4825,5328,11781,01.127,551
2022-04-05T12:17:20,42.805,6.029,CST-1368DR,4825,5336,11800,01.121,551
2022-04-05T12:20:22,42.805,6.029,CST-1368DR,4824,5177,11451,01.241,551
2022-04-05T12:23:23,42.805,6.029,CST-1368DR,4823,5118,11322,01.286,551
2022-04-05T12:26:25,42.805,6.029,CST-1368DR,4823,5121,11330,01.283,551
2022-04-05T12:29:27,42.805,6.029,CST-1368DR,4823,5101,11285,01.299,551
2022-04-05T12:32:28,42.805,6.029,CST-1368DR,4823,5098,11278,01.302,551
2022-04-05T12:35:30,42.805,6.029,CST-1368DR,4823,5138,11366,01.271,551
2022-04-05T12:38:31,42.805,6.029,CST-1368DR,4822,5070,11218,01.323,551
2022-04-05T12:41:33,42.805,6.029,CST-1368DR,4824,5335,11800,01.121,551
2022-04-05T12:44:35,42.805,6.029,CST-1368DR,4826,5537,12243,0.973,551
2022-04-05T12:47:36,42.805,6.029,CST-1368DR,4825,5505,12173,0.996,551
2022-04-05T12:50:38,42.805,6.029,CST-1368DR,4825,5528,12225,0.979,551
2022-04-05T12:53:39,42.805,6.029,CST-1368DR,4826,5574,12323,0.947,551
2022-04-05T12:56:41,42.805,6.029,CST-1368DR,4826,5603,12389,0.926,551
2022-04-05T12:59:42,42.805,6.029,CST-1368DR,4827,5691,12581,0.864,551
2022-04-05T13:02:44,42.805,6.029,CST-1368DR,4827,5689,12576,0.866,551
2022-04-05T13:05:46,42.805,6.029,CST-1368DR,4826,5689,12579,0.865,551
2022-04-05T13:08:47,42.805,6.029,CST-1368DR,4826,5676,12548,0.875,551
2022-04-05T13:11:49,42.805,6.029,CST-1368DR,4826,5684,12566,0.869,551
2022-04-05T13:14:50,42.805,6.029,CST-1368DR,4826,5680,12558,0.872,551
2022-04-05T13:17:52,42.805,6.029,CST-1368DR,4826,5699,12601,0.858,551
2022-04-05T13:20:53,42.805,6.029,CST-1368DR,4826,5689,12578,0.865,551
2022-04-05T13:23:55,42.805,6.029,CST-1368DR,4826,5697,12596,0.860,551
2022-04-05T13:26:57,42.805,6.029,CST-1368DR,4826,5697,12596,0.860,551
2022-04-05T13:29:58,42.805,6.029,CST-1368DR,4826,5692,12585,0.863,551
2022-04-05T13:33:00,42.805,6.029,CST-1368DR,4826,5689,12578,0.865,551
2022-04-05T13:36:01,42.805,6.029,CST-1368DR,4826,5693,12586,0.863,551
2022-04-05T13:39:03,42.805,6.029,CST-1368DR,4826,5696,12593,0.861,551
2022-04-05T13:42:05,42.805,6.029,CST-1368DR,4826,5697,12596,0.860,551
2022-04-05T13:45:06,42.805,6.029,CST-1368DR,4826,5697,12596,0.860,551
2022-04-05T13:48:08,42.805,6.029,CST-1368DR,4826,5697,12596,0.860,551
2022-04-05T13:51:09,42.805,6.029,CST-1368DR,4825,5690,12582,0.864,551
2022-04-05T13:54:11,42.805,6.029,CST-1368DR,4825,5691,12585,0.863,551
2022-04-05T13:57:12,42.805,6.029,CST-1368DR,4825,5692,12586,0.863,551
2022-04-05T14:00:14,42.805,6.029,CST-1368DR,4825,5690,12582,0.864,551
2022-04-05T14:03:16,42.805,6.029,CST-1368DR,4825,5687,12577,0.866,551
2022-04-05T14:06:17,42.805,6.029,CST-1368DR,4825,5685,12571,0.868,551
2022-04-05T14:09:19,42.805,6.029,CST-1368DR,4825,5684,12570,0.868,551
2022-04-05T14:12:20,42.805,6.029,CST-1368DR,4825,5688,12577,0.866,551
2022-04-05T14:15:22,42.805,6.029,CST-1368DR,4825,5689,12581,0.864,551
2022-04-05T14:18:23,42.805,6.029,CST-1368DR,4825,5690,12582,0.864,551
2022-04-05T14:21:25,42.805,6.029,CST-1368DR,4825,5691,12586,0.863,551
2022-04-05T14:24:27,42.805,6.029,CST-1368DR,4825,5691,12586,0.863,551
2022-04-05T14:27:28,42.805,6.029,CST-1368DR,4825,5691,12585,0.863,551
2022-04-05T14:30:30,42.805,6.029,CST-1368DR,4825,5692,12587,0.863,551
2022-04-05T14:33:31,42.805,6.029,CST-1368DR,4824,5688,12580,0.865,551
2022-04-05T14:36:33,42.805,6.029,CST-1368DR,4824,5694,12594,0.860,551
2022-04-05T14:39:35,42.805,6.029,CST-1368DR,4824,5694,12594,0.860,551
2022-04-05T14:42:36,42.805,6.029,CST-1368DR,4824,5695,12596,0.860,551
2022-04-05T14:45:38,42.805,6.029,CST-1368DR,4824,5694,12594,0.860,551
2022-04-05T14:48:39,42.805,6.029,CST-1368DR,4824,5692,12590,0.862,551
2022-04-05T14:51:41,42.805,6.029,CST-1368DR,4824,5692,12589,0.862,551
2022-04-05T14:54:42,42.805,6.029,CST-1368DR,4824,5694,12593,0.861,551
2022-04-05T14:57:44,42.805,6.029,CST-1368DR,4824,5694,12595,0.860,551
2022-04-05T15:00:46,42.805,6.029,CST-1368DR,4824,5693,12591,0.861,551
2022-04-05T15:03:47,42.805,6.029,CST-1368DR,4824,5705,12619,0.852,551
2022-04-05T15:06:49,42.805,6.029,CST-1368DR,4824,5694,12594,0.860,551
2022-04-05T15:09:50,42.805,6.029,CST-1368DR,4824,5697,12601,0.858,551
2022-04-05T15:12:52,42.805,6.029,CST-1368DR,4824,5693,12591,0.861,551
2022-04-05T15:15:53,42.805,6.029,CST-1368DR,4824,5693,12591,0.861,551
2022-04-05T15:18:55,42.805,6.029,CST-1368DR,4824,5695,12596,0.860,551
2022-04-05T15:21:57,42.805,6.029,CST-1368DR,4824,5694,12593,0.861,551
2022-04-05T15:24:58,42.805,6.029,CST-1368DR,4824,5696,12598,0.859,551
2022-04-05T15:28:00,42.805,6.029,CST-1368DR,4824,5695,12597,0.859,551
2022-04-05T15:31:01,42.805,6.029,CST-1368DR,4823,5696,12601,0.858,551
2022-04-05T15:34:03,42.805,6.029,CST-1368DR,4824,5751,12720,0.820,551
2022-04-05T15:37:05,42.805,6.029,CST-1368DR,4824,5751,12720,0.820,551
2022-04-05T15:40:06,42.805,6.029,CST-1368DR,4824,5749,12716,0.822,551
2022-04-05T15:43:08,42.805,6.029,CST-1368DR,4824,5750,12717,0.821,551
2022-04-05T15:46:09,42.805,6.029,CST-1368DR,4824,5749,12715,0.822,551
2022-04-05T15:49:11,42.805,6.029,CST-1368DR,4824,5749,12716,0.822,551
2022-04-05T15:52:12,42.805,6.029,CST-1368DR,4824,5748,12713,0.823,551
2022-04-05T15:55:14,42.805,6.029,CST-1368DR,4824,5750,12717,0.821,551
2022-04-05T15:58:16,42.805,6.029,CST-1368DR,4824,5748,12714,0.822,551
2022-04-05T16:01:17,42.805,6.029,CST-1368DR,4824,5751,12721,0.820,551
